This demonstration page uses our WeatherBlox Daily Observations layout. Learn more.

Left ArrowRight Arrow

40.92945, -100.16068

Hourly Observations for October 5, 2018

Temp ( °F °C ) Dew Point ( °F °C ) Humidity (%) Winds ( mph kmh ) Pressure ( in mb ) Visibility ( mi km ) Precip ( " mm )
12:15 am 00:15 Cloudy 38 3.4 36 2.3 93 93 S 5 7 30.09 1019 10 16.0934 0 0
12:35 am 00:35 Mostly Cloudy 37 2.8 35 1.8 93 93 Calm 30.09 1019 7 11.26538 0 0
12:55 am 00:55 Partly Cloudy 37 2.6 35 1.7 94 94 SSW 6 9 30.06 1018 7 11.26538 0 0
1:15 am 01:15 Clear 37 2.7 35 1.9 95 95 S 6 9 30.06 1018 7 11.26538 0 0
1:35 am 01:35 Clear 36 2.3 35 1.4 94 94 S 5 7 30.06 1018 7 11.26538 0 0
1:55 am 01:55 Clear 37 2.5 35 1.7 95 95 S 6 9 30.06 1018 7 11.26538 0 0
2:15 am 02:15 Partly Cloudy 37 2.5 35 1.6 94 94 SSW 3 6 30.06 1018 7 11.26538 0 0
2:35 am 02:35 Cloudy 37 2.6 35 1.8 95 95 SSW 3 6 30.06 1018 7 11.26538 0 0
2:55 am 02:55 Cloudy 37 3 36 2.1 94 94 Calm 30.03 1017 7 11.26538 0 0
3:15 am 03:15 Cloudy 38 3.1 36 2.3 95 95 Calm 30.03 1017 7 11.26538 0 0
3:35 am 03:35 Cloudy 38 3.4 37 2.5 94 94 WSW 3 6 30 1016 7 11.26538 0 0
3:55 am 03:55 Cloudy 38 3.3 37 2.5 95 95 WSW 5 7 29.97 1015 7 11.26538 0 0
4:15 am 04:15 Cloudy with Mist and Fog 38 3.4 37 2.5 94 94 W 8 13 29.97 1015 4 6.43736 0 0
4:35 am 04:35 Cloudy with Mist and Fog 38 3.6 37 2.8 95 95 WSW 3 6 29.97 1015 3 4.82802 0 0
4:55 am 04:55 Cloudy with Mist and Fog 39 3.7 37 3 95 95 WSW 3 6 29.97 1015 4 6.43736 0 0
5:15 am 05:15 Cloudy with Mist and Fog 39 3.8 37 3 95 95 WSW 6 9 29.97 1015 5 8.0467 0 0
5:35 am 05:35 Cloudy 39 3.7 37 3 95 95 WSW 5 7 29.97 1015 7 11.26538 0 0
5:55 am 05:55 Cloudy with Mist and Fog 39 3.8 37 3 95 95 WSW 5 7 29.97 1015 5 8.0467 0 0
6:15 am 06:15 Cloudy with Mist and Fog 39 4 37 3 93 93 WSW 3 6 29.94 1014 5 8.0467 0 0
6:35 am 06:35 Cloudy with Mist and Fog 39 4 38 3.1 94 94 SW 5 7 29.94 1014 5 8.0467 0 0
6:55 am 06:55 Cloudy with Mist and Fog 39 4 38 3.2 95 95 SSW 7 11 29.97 1015 4 6.43736 0 0
7:15 am 07:15 Cloudy with Mist and Fog 39 4.1 38 3.4 95 95 SW 5 7 29.97 1015 3 4.82802 0 0
7:35 am 07:35 Cloudy with Mist and Fog 40 4.3 38 3.5 95 95 SW 7 11 29.97 1015 2 3.21868 0 0
7:55 am 07:55 Cloudy with Mist and Fog 40 4.5 38 3.6 94 94 SW 7 11 29.97 1015 1 1.60934 0 0
8:15 am 08:15 Cloudy with Fog 41 4.8 39 4.1 95 95 SW 7 11 29.94 1014 0.5 0.80467 0 0
8:35 am 08:35 Cloudy with Mist and Fog 41 4.9 39 4.1 95 95 SW 8 13 29.94 1014 0.75 1.207005 0 0
8:55 am 08:55 Cloudy with Mist and Fog 41 4.8 39 4.1 95 95 WSW 8 13 29.94 1014 1 1.60934 0 0
9:15 am 09:15 Cloudy with Mist and Fog 41 5 40 4.3 95 95 SW 8 13 29.94 1014 1 1.60934 0 0
9:35 am 09:35 Cloudy with Mist and Fog 41 5.2 40 4.5 95 95 SW 5 7 29.97 1015 1.25 2.011675 0 0
9:55 am 09:55 Cloudy with Mist and Fog 42 5.5 41 4.8 95 95 SW 7 11 29.97 1015 1.75 2.816345 0 0
10:15 am 10:15 Cloudy with Mist and Fog 43 5.9 41 5.2 95 95 SW 7 11 29.91 1013 2 3.21868 0 0
10:35 am 10:35 Cloudy with Mist and Fog 43 6.3 42 5.6 95 95 SW 3 6 29.94 1014 4 6.43736 0 0
10:55 am 10:55 Cloudy 45 7.1 43 6.2 94 94 SSW 7 11 29.91 1013 7 11.26538 0 0
11:15 am 11:15 Cloudy 46 7.5 43 6.1 91 91 SSW 5 7 29.91 1013 7 11.26538 0 0
11:35 am 11:35 Cloudy 46 7.6 43 6.1 90 90 Calm 29.91 1013 7 11.26538 0 0
11:55 am 11:55 Cloudy 46 7.9 43 6.3 90 90 SSW 6 9 29.88 1012 7 11.26538 0 0
12:15 pm 12:15 Cloudy 47 8.3 44 6.6 89 89 SW 3 6 29.88 1012 7 11.26538 0 0
12:35 pm 12:35 Cloudy 48 8.9 45 7 88 88 SSW 6 9 29.85 1011 10 16.0934 0 0
12:55 pm 12:55 Cloudy 49 9.4 45 7.2 86 86 S 5 7 29.85 1011 10 16.0934 0 0
1:15 pm 13:15 Cloudy 50 9.9 46 7.5 85 85 SW 3 6 29.85 1011 10 16.0934 0 0
1:35 pm 13:35 Cloudy 49 9.7 45 7.3 85 85 Calm 29.85 1011 10 16.0934 0 0
1:55 pm 13:55 Cloudy 50 10 46 7.8 86 86 NW 3 6 29.85 1011 10 16.0934 0 0
2:15 pm 14:15 Cloudy 50 10 46 7.7 86 86 WNW 6 9 29.85 1011 10 16.0934 0 0
2:35 pm 14:35 Cloudy 50 10 46 7.7 86 86 NW 8 13 29.85 1011 10 16.0934 0 0
2:55 pm 14:55 Cloudy 50 10 46 7.8 86 86 NNW 6 9 29.85 1011 7 11.26538 0 0
3:15 pm 15:15 Cloudy 50 10.2 46 8 86 86 NE 3 6 29.85 1011 7 11.26538 0 0
3:35 pm 15:35 Cloudy 52 11.1 47 8.3 83 83 Calm 29.85 1011 10 16.0934 0 0
3:55 pm 15:55 Cloudy 54 12 47 8.5 79 79 Calm 29.83 1010 10 16.0934 0 0
4:15 pm 16:15 Partly Cloudy 55 12.6 48 8.7 77 77 Calm 29.83 1010 10 16.0934 0 0
4:35 pm 16:35 Sunny 56 13.4 48 9.1 75 75 Calm 29.83 1010 10 16.0934 0 0
4:55 pm 16:55 Sunny 57 13.9 48 9.1 73 73 SE 3 6 29.83 1010 10 16.0934 0 0
5:15 pm 17:15 Partly Cloudy 58 14.4 49 9.3 72 72 SW 3 6 29.85 1011 10 16.0934 0 0
5:35 pm 17:35 Mostly Cloudy 57 14 49 9.5 75 75 NW 3 6 29.88 1012 10 16.0934 0 0
5:55 pm 17:55 Cloudy 58 14.3 46 7.6 64 64 N 16 26 29.88 1012 10 16.0934 0 0
6:15 pm 18:15 Cloudy 56 13.5 45 7 65 65 N 15 24 29.91 1013 10 16.0934 0 0
6:35 pm 18:35 Cloudy 54 12.4 43 6.2 66 66 N 15 24 29.97 1015 10 16.0934 0 0
6:55 pm 18:55 Cloudy 53 11.5 42 5.4 66 66 N 18 30 29.97 1015 10 16.0934 0 0
7:15 pm 19:15 Cloudy 51 10.7 41 5.1 69 69 N 13 20 30 1016 10 16.0934 0 0
7:35 pm 19:35 Cloudy 50 10.2 40 4.5 68 68 N 18 30 30 1016 10 16.0934 0 0
7:55 pm 19:55 Cloudy 49 9.7 40 4.3 69 69 N 16 26 30.03 1017 10 16.0934 0 0
8:15 pm 20:15 Cloudy 49 9.5 40 4.5 71 71 N 14 22 30.03 1017 10 16.0934 0 0
8:35 pm 20:35 Mostly Cloudy 47 8.6 39 4 73 73 N 14 22 30.06 1018 10 16.0934 0 0
8:55 pm 20:55 Partly Cloudy 46 8 39 3.8 75 75 N 13 20 30.06 1018 10 16.0934 0 0
9:15 pm 21:15 Clear 46 7.6 39 3.8 77 77 N 13 20 30.03 1017 10 16.0934 0 0
9:35 pm 21:35 Clear 46 7.5 39 3.7 77 77 N 14 22 30.06 1018 10 16.0934 0 0
9:55 pm 21:55 Clear 46 7.5 38 3.6 77 77 N 10 17 30.06 1018 10 16.0934 0 0
10:15 pm 22:15 Clear 45 7.3 38 3.5 77 77 N 9 15 30.06 1018 10 16.0934 0 0
10:35 pm 22:35 Clear 45 7 38 3.5 79 79 N 10 17 30.12 1020 10 16.0934 0 0
10:55 pm 22:55 Clear 45 7 38 3.5 79 79 N 9 15 30.15 1021 10 16.0934 0 0
11:15 pm 23:15 Partly Cloudy 44 6.6 38 3.5 81 81 N 12 19 30.15 1021 10 16.0934 0 0
11:35 pm 23:35 Partly Cloudy 43 6.2 38 3.4 82 82 N 7 11 30.15 1021 10 16.0934 0 0
11:55 pm 23:55 Clear 42 5.4 37 3 85 85 NNW 5 7 30.15 1021 10 16.0934 0 0

Powered by AerisWeather